TimeCST,TemperatureF,Dew PointF,Humidity,Sea Level PressureIn,VisibilityMPH,Wind Direction,Wind SpeedMPH,Gust SpeedMPH,PrecipitationIn,Events,Conditions,WindDirDegrees,DateUTC
12:53 AM,28.9,26.1,89,30.20,4.0,North,6.9,-,0.00,Snow,Light Snow,360,2013-03-01 06:53:00
1:53 AM,30.2,23.0,75,30.17,10.0,NNW,10.4,-,N/A,,Overcast,340,2013-03-01 07:53:00
2:53 AM,30.0,21.9,72,30.19,10.0,NNW,9.2,-,N/A,,Overcast,340,2013-03-01 08:53:00
3:53 AM,30.0,21.0,69,30.18,10.0,NNW,13.8,-,N/A,,Overcast,340,2013-03-01 09:53:00
4:53 AM,30.0,19.9,66,30.19,10.0,NNW,10.4,-,N/A,,Overcast,340,2013-03-01 10:53:00
5:53 AM,30.0,21.0,69,30.20,10.0,NNW,9.2,-,N/A,,Overcast,340,2013-03-01 11:53:00
6:53 AM,30.0,21.0,69,30.21,10.0,NW,6.9,-,N/A,,Overcast,310,2013-03-01 12:53:00
7:38 AM,30.2,21.2,69,30.18,10.0,NNW,6.9,-,N/A,,Overcast,340,2013-03-01 13:38:00
7:53 AM,30.0,21.0,69,30.20,10.0,NNW,6.9,-,N/A,,Overcast,330,2013-03-01 13:53:00
8:08 AM,30.2,21.2,69,30.18,10.0,NW,8.1,-,N/A,,Overcast,320,2013-03-01 14:08:00
8:53 AM,30.2,21.2,69,30.18,10.0,NW,8.1,-,N/A,,Overcast,320,2013-03-01 14:53:00
9:53 AM,32.0,24.1,73,30.23,10.0,WNW,9.2,-,N/A,,Overcast,300,2013-03-01 15:53:00
10:53 AM,30.9,24.1,76,30.24,10.0,NW,10.4,-,N/A,,Overcast,310,2013-03-01 16:53:00
11:53 AM,30.9,21.9,69,30.24,10.0,NW,10.4,-,N/A,,Overcast,310,2013-03-01 17:53:00
12:53 PM,32.0,21.0,64,30.22,10.0,WNW,12.7,-,N/A,,Overcast,300,2013-03-01 18:53:00
1:53 PM,33.1,21.0,61,30.21,10.0,West,11.5,-,N/A,,Overcast,280,2013-03-01 19:53:00
2:53 PM,32.0,19.4,60,30.18,10.0,WNW,11.5,20.7,N/A,,Overcast,300,2013-03-01 20:53:00
3:53 PM,30.0,19.9,66,30.22,10.0,NW,15.0,21.9,N/A,,Overcast,320,2013-03-01 21:53:00
4:53 PM,28.0,19.0,69,30.24,10.0,NNW,15.0,-,N/A,,Overcast,340,2013-03-01 22:53:00
5:53 PM,28.0,18.0,66,30.25,10.0,NW,15.0,19.6,N/A,,Overcast,320,2013-03-01 23:53:00
6:53 PM,28.0,19.0,69,30.27,10.0,NNW,10.4,-,N/A,,Overcast,330,2013-03-02 00:53:00
7:53 PM,27.0,18.0,69,30.27,10.0,North,8.1,20.7,0.00,,Overcast,360,2013-03-02 01:53:00
8:53 PM,27.0,18.0,69,30.28,10.0,NNW,9.2,-,N/A,,Mostly Cloudy,330,2013-03-02 02:53:00
9:53 PM,26.1,19.9,78,30.29,10.0,NNW,10.4,-,0.00,,Overcast,340,2013-03-02 03:53:00
10:53 PM,26.1,21.0,81,30.29,7.0,NNW,10.4,-,0.00,Snow,Light Snow,330,2013-03-02 04:53:00
11:53 PM,26.1,21.0,81,30.29,7.0,NNW,9.2,-,0.00,Snow,Light Snow,330,2013-03-02 05:53:00